Location: Seattle
(47.6062°N, 122.3321°W)
Time: 12:30:14
(UTC-07:00)

ISS - Visible Passes

Search period start: 22 October 2019 00:00
Search period end: 01 November 2019 00:00
Orbit: 411 x 421 km, 51.6° (Epoch: 23 October)

Date Brightness Start Highest point End Pass type
(mag) Time Alt. Az. Time Alt. Az. Time Alt. Az.
24 Oct -1.9 07:06:51 10° SSW 07:09:53 32° SE 07:12:55 10° E visible
25 Oct -1.3 06:18:52 10° S 06:21:28 21° SE 06:24:03 10° E visible
26 Oct -0.9 05:31:33 10° SSE 05:33:05 13° SE 05:34:48 10° ESE visible
26 Oct -3.5 07:05:58 10° SW 07:09:19 70° SSE 07:12:41 10° ENE visible
27 Oct -2.8 06:18:28 17° SW 06:20:47 45° SSE 06:24:02 10° ENE visible
28 Oct -2.1 05:32:18 29° SE 05:32:18 29° SE 05:35:17 10° E visible
28 Oct -3.7 07:05:31 10° WSW 07:08:52 64° NNW 07:12:13 10° ENE visible
29 Oct -0.4 04:46:00 12° E 04:46:00 12° E 04:46:20 10° E visible
29 Oct -3.8 06:18:54 34° WSW 06:20:14 87° NNW 06:23:36 10° ENE visible
30 Oct -2.6 05:32:29 44° E 05:32:29 44° E 05:34:58 10° ENE visible
30 Oct -3.2 07:05:23 11° W 07:08:30 44° N 07:11:45 10° ENE visible
31 Oct -0.3 04:45:59 12° ENE 04:45:59 12° ENE 04:46:17 10° ENE visible
31 Oct -3.4 06:18:53 39° WNW 06:19:47 52° NNW 06:23:05 10° ENE visible
